{"data":{"norad_id":48996,"epoch":"2026-09-18T06:52:00.791328Z","epoch_age_seconds":217056,"freshness":"STALE","line1":"1 48996U 21060AF  26261.28612027 -.00000032  00000+0 -11856-3 0  9990","line2":"2 48996  87.9150 210.2903 0001869  82.2237 277.9106 13.16593584251941","mean_motion":13.16593584,"eccentricity":0.0001869,"inclination_deg":87.915,"raan_deg":210.2903,"arg_perigee_deg":82.2237,"mean_anomaly_deg":277.9106,"bstar":-0.00011856,"rev_number":25194,"period_min":109.3731594548,"perigee_km":1196.3433137857,"apogee_km":1199.1751838035,"semimajor_km":7575.8962487946,"source":"CELESTRAK","updated_at":"2026-09-20T09:00:44.628893Z"}}